• Join FlightAware (Why Join?)
  • Login
  • US Flag 
11:16PM EDT


 

Airport Tracker/Info


-or-


 

Live Flight TrackerFlight Track Log ✈ DAL1841 ✈ 15-May-2013 ✈ KECP - KATL

Flight Track Log - Related Links

Times and Time Zones

All times are in EDT time to prevent confusion due to time zone crossing. See the DAL1841 flight status page for this flight to view local times or setup timezone preferences in your user account.

Time Position Orientation Groundspeed Altitude Reporting Facility
EDT Latitude Longitude Course Direction KTS MPH feet Rate Location/Type
02:50PM 30.5450 -85.6761 15° North 314 361 8,500  Level Jacksonville Center
02:51PM 30.6269 -85.6567 12° North 315 362 10,900 1,800 Climbing Jacksonville Center
02:52PM 30.7214 -85.6328 12° North 315 362 12,200 1,980 Climbing Jacksonville Center
02:53PM 30.8181 -85.6067 13° North 336 387 14,900 2,400 Climbing Jacksonville Center
02:54PM 30.9108 -85.5633 22° Northeast 347 399 17,000 1,920 Climbing Jacksonville Center
02:55PM 31.0142 -85.5178 21° North 368 423 18,800 1,800 Climbing Jacksonville Center
02:56PM 31.1150 -85.4867 15° North 373 429 20,700 1,740 Climbing Jacksonville Center
02:57PM 31.2222 -85.4458 18° North 384 442 22,300 1,080 Climbing Jacksonville Center
02:58PM 31.3125 -85.4167 15° North 395 455 22,900 300 Climbing Jacksonville Center
02:59PM 31.4511 -85.3814 12° North 408 470 23,000  Climbing Jacksonville Center
03:00PM 31.5747 -85.3556 10° North 432 497 23,000  Level Jacksonville Center
03:03PM 31.8694 -85.3031 North 464 534 23,000  Level Atlanta Center
03:04PM 31.9969 -85.2853 North 459 528 23,000  Level Atlanta Center
03:05PM 32.1244 -85.2822 North 459 528 23,000  Level Atlanta Center
03:06PM 32.2497 -85.2792 North 459 528 23,000  Level Atlanta Center
03:07PM 32.3750 -85.2711 North 453 521 23,000  Level Atlanta Center
03:08PM 32.5003 -85.2703 360° North 453 521 23,000  Level Atlanta Center
03:09PM 32.6233 -85.2669 North 448 516 23,000 -900 Level Atlanta Center
03:10PM 32.7592 -85.2517 North 443 510 21,300 -2,580 Descending Atlanta Center
03:11PM 32.8806 -85.2336 North 438 504 17,900 -3,300 Descending Atlanta Center
03:12PM 32.9933 -85.2128 North 424 488 14,800 -1,920 Descending Atlanta Center
03:13PM 33.0981 -85.1819 14° North 397 457 14,100 -420 Descending Atlanta Center
03:14PM 33.1594 -85.0711 56° Northeast 361 415 14,000 -60 Descending Atlanta Center
03:15PM 33.2292 -84.9650 52° Northeast 389 448 14,000 -300 Level Atlanta Center
03:16PM 33.3011 -84.8592 51° Northeast 408 470 13,500 -720 Descending Atlanta Center
03:17PM 33.3725 -84.7578 50° Northeast 403 464 12,600 -780 Descending Atlanta Center
03:17PM 33.4333 -84.7000 38° Northeast 378 435 12,200 -420 Descending Atlanta TRACON
03:18PM 33.4833 -84.6167 54° Northeast 308 354 12,000 -300 Descending Atlanta TRACON
03:19PM 33.5167 -84.5500 59° Northeast 267 307 11,700 -900 Descending Atlanta TRACON
03:20PM 33.5333 -84.4667 76° East 265 305 10,300 -1,740 Descending Atlanta TRACON
03:21PM 33.5333 -84.3833 90° East 258 297 8,300 -2,280 Descending Atlanta TRACON
03:22PM 33.5333 -84.2833 90° East 256 295 5,800 -2,520 Descending Atlanta TRACON